Погода в Мауке

Россия / Челябинская область     55°54′27″N   60°27′43″E
темп.,
°C
ветер,
м/с
пор.,
м/с
влажн.,
%
обл.,
%
осадки,
мм/ч
давл.,
гПа
погр.,
м
25 мая, ср
ср2523:00+11всв2699100 3.1 1008198
02:00+10всв2799100 1.1 1007230
05:00+10в11100100 1.4 100666
08:00+13юв1397100 0.0 1005172
11:00+15юв268197 0.0 1005328
14:00+21ююв61659100 0.0 10042151
17:00+20ююв71562100 0.6 10042262
20:00+10зсз3994100 3.2 1008356
26 мая, чт
чт2623:00+9з389530 3.2 1009323
02:00+6з23974 0.0 101064
05:00+6зюз22940 0.0 101133
08:00+10з588763 0.0 1012569
11:00+11зсз4665100 0.0 10131013
14:00+12сз3550100 0.0 10121337
17:00+14ссз4544100 0.0 10121641
20:00+11ссз366098 0.0 1011244
27 мая, пт
пт2723:00+7сз41272100 0.0 1012425
02:00+6зсз41177100 0.0 1012424
05:00+4зсз412802 0.0 1012455
08:00+9зсз59640 0.0 1012962
11:00+13зсз574887 0.0 10121720
14:00+16з464117 0.0 10122020
17:00+16з454280 0.0 10111920
20:00+13зюз1266100 0.0 101239
28 мая, сб
сб2823:00+9ююз1175100 0.0 101310
02:00+8юз117792 0.0 101210
05:00+8юз117853 0.0 101210
08:00+13ю136499 0.0 1012190
11:00+17ю354816 0.0 10111661
14:00+16зюз246018 0.1 1012974
17:00+18юз235515 0.3 10121153
20:00+16зюз116935 0.0 101419
29 мая, вс
вс2923:00+11зюз23924 0.0 101657
02:00+9юз27945 0.0 1017135
05:00+10зюз31291100 0.0 1017322
08:00+15юз41169100 0.0 1017549
11:00+19зюз5105897 0.0 10181327
14:00+20зюз51062100 0.0 10191401
17:00+20зюз5960100 0.1 10191383
20:00+18зюз387652 0.0 1019672